Year,Month,Day,Hour,Minute,Value (Times are PST for temperature in C)
2018,03,27,00,00,10.60
2018,03,27,00,01,10.60
2018,03,27,00,02,10.60
2018,03,27,00,03,10.60
2018,03,27,00,04,10.60
2018,03,27,00,05,10.60
2018,03,27,00,06,10.60
2018,03,27,00,07,10.60
2018,03,27,00,08,10.60
2018,03,27,00,09,10.60
2018,03,27,00,10,10.60
2018,03,27,00,11,10.60
2018,03,27,00,12,10.50
2018,03,27,00,13,10.50
2018,03,27,00,14,10.50
2018,03,27,00,15,10.50
2018,03,27,00,16,10.50
2018,03,27,00,17,10.50
2018,03,27,00,18,10.50
2018,03,27,00,19,10.50
2018,03,27,00,20,10.50
2018,03,27,00,21,10.50
2018,03,27,00,22,10.40
2018,03,27,00,23,10.50
2018,03,27,00,24,10.50
2018,03,27,00,25,10.60
2018,03,27,00,26,10.60
2018,03,27,00,27,10.60
2018,03,27,00,28,10.60
2018,03,27,00,29,10.60
2018,03,27,00,30,10.60
2018,03,27,00,31,10.60
2018,03,27,00,32,10.60
2018,03,27,00,33,10.60
2018,03,27,00,34,10.60
2018,03,27,00,35,10.60
2018,03,27,00,36,10.60
2018,03,27,00,37,10.60
2018,03,27,00,38,10.60
2018,03,27,00,39,10.50
2018,03,27,00,40,10.50
2018,03,27,00,41,10.50
2018,03,27,00,42,10.50
2018,03,27,00,43,10.40
2018,03,27,00,44,10.40
2018,03,27,00,45,10.40
2018,03,27,00,46,10.40
2018,03,27,00,47,10.30
2018,03,27,00,48,10.30
2018,03,27,00,49,10.30
2018,03,27,00,50,10.30
2018,03,27,00,51,10.30
2018,03,27,00,52,10.30
2018,03,27,00,53,10.30
2018,03,27,00,54,10.30
2018,03,27,00,55,10.30
2018,03,27,00,56,10.30
2018,03,27,00,57,10.30
2018,03,27,00,58,10.30
2018,03,27,00,59,10.30
2018,03,27,01,00,10.30
2018,03,27,01,01,10.30
2018,03,27,01,02,10.30
2018,03,27,01,03,10.30
2018,03,27,01,04,10.30
2018,03,27,01,05,10.30
2018,03,27,01,06,10.40
2018,03,27,01,07,10.40
2018,03,27,01,08,10.40
2018,03,27,01,09,10.50
2018,03,27,01,10,10.40
2018,03,27,01,11,10.40
2018,03,27,01,12,10.40
2018,03,27,01,13,10.40
2018,03,27,01,14,10.40
2018,03,27,01,15,10.30
2018,03,27,01,16,10.30
2018,03,27,01,17,10.30
2018,03,27,01,18,10.30
2018,03,27,01,19,10.30
2018,03,27,01,20,10.30
2018,03,27,01,21,10.30
2018,03,27,01,22,10.30
2018,03,27,01,23,10.30
2018,03,27,01,24,10.30
2018,03,27,01,25,10.30
2018,03,27,01,26,10.30
2018,03,27,01,27,10.30
2018,03,27,01,28,10.30
2018,03,27,01,29,10.30
2018,03,27,01,30,10.30
2018,03,27,01,31,10.40
2018,03,27,01,32,10.40
2018,03,27,01,33,10.40
2018,03,27,01,34,10.40
2018,03,27,01,35,10.40
2018,03,27,01,36,10.40
2018,03,27,01,37,10.40
2018,03,27,01,38,10.40
2018,03,27,01,39,10.30
2018,03,27,01,40,10.30
2018,03,27,01,41,10.40
2018,03,27,01,42,10.40
2018,03,27,01,43,10.40
2018,03,27,01,44,10.40
2018,03,27,01,45,10.40
2018,03,27,01,46,10.30
2018,03,27,01,47,10.30
2018,03,27,01,48,10.30
2018,03,27,01,49,10.30
2018,03,27,01,50,10.20
2018,03,27,01,51,10.20
2018,03,27,01,52,10.20
2018,03,27,01,53,10.20
2018,03,27,01,54,10.20
2018,03,27,01,55,10.20
2018,03,27,01,56,10.20
2018,03,27,01,57,10.20
2018,03,27,01,58,10.20
2018,03,27,01,59,10.20
2018,03,27,02,00,10.20
2018,03,27,02,01,10.20
2018,03,27,02,02,10.20
2018,03,27,02,03,10.20
2018,03,27,02,04,10.20
2018,03,27,02,05,10.20
2018,03,27,02,06,10.10
2018,03,27,02,07,10.10
2018,03,27,02,08,10.10
2018,03,27,02,09,10.10
2018,03,27,02,10,10.20
2018,03,27,02,11,10.30
2018,03,27,02,12,10.40
2018,03,27,02,13,10.40
2018,03,27,02,14,10.40
2018,03,27,02,15,10.30
2018,03,27,02,16,10.30
2018,03,27,02,17,10.30
2018,03,27,02,18,10.30
2018,03,27,02,19,10.20
2018,03,27,02,20,10.20
2018,03,27,02,21,10.30
2018,03,27,02,22,10.30
2018,03,27,02,23,10.30
2018,03,27,02,24,10.40
2018,03,27,02,25,10.40
2018,03,27,02,26,10.40
2018,03,27,02,27,10.40
2018,03,27,02,28,10.40
2018,03,27,02,29,10.30
2018,03,27,02,30,10.30
2018,03,27,02,31,10.30
2018,03,27,02,32,10.20
2018,03,27,02,33,10.20
2018,03,27,02,34,10.20
2018,03,27,02,35,10.20
2018,03,27,02,36,10.20
2018,03,27,02,37,10.20
2018,03,27,02,38,10.20
2018,03,27,02,39,10.30
2018,03,27,02,40,10.30
2018,03,27,02,41,10.40
2018,03,27,02,42,10.50
2018,03,27,02,43,10.60
2018,03,27,02,44,10.60
2018,03,27,02,45,10.60
2018,03,27,02,46,10.50
2018,03,27,02,47,10.50
2018,03,27,02,48,10.40
2018,03,27,02,49,10.30
2018,03,27,02,50,10.30
2018,03,27,02,51,10.30
2018,03,27,02,52,10.30
2018,03,27,02,53,10.30
2018,03,27,02,54,10.30
2018,03,27,02,55,10.30
2018,03,27,02,56,10.30
2018,03,27,02,57,10.30
2018,03,27,02,58,10.30
2018,03,27,02,59,10.30
2018,03,27,03,00,10.40
2018,03,27,03,01,10.50
2018,03,27,03,02,10.50
2018,03,27,03,03,10.50
2018,03,27,03,04,10.60
2018,03,27,03,05,10.50
2018,03,27,03,06,10.50
2018,03,27,03,07,10.50
2018,03,27,03,08,10.40
2018,03,27,03,09,10.40
2018,03,27,03,10,10.40
2018,03,27,03,11,10.30
2018,03,27,03,12,10.30
2018,03,27,03,13,10.30
2018,03,27,03,14,10.20
2018,03,27,03,15,10.20
2018,03,27,03,16,10.20
2018,03,27,03,17,10.20
2018,03,27,03,18,10.30
2018,03,27,03,19,10.30
2018,03,27,03,20,10.50
2018,03,27,03,21,10.50
2018,03,27,03,22,10.60
2018,03,27,03,23,10.60
2018,03,27,03,24,10.60
2018,03,27,03,25,10.60
2018,03,27,03,26,10.70
2018,03,27,03,27,10.70
2018,03,27,03,28,10.70
2018,03,27,03,29,10.70
2018,03,27,03,30,10.80
2018,03,27,03,31,10.80
2018,03,27,03,32,10.80
2018,03,27,03,33,10.80
2018,03,27,03,34,10.80
2018,03,27,03,35,10.80
2018,03,27,03,36,10.80
2018,03,27,03,37,10.80
2018,03,27,03,38,10.80
2018,03,27,03,39,10.80
2018,03,27,03,40,10.80
2018,03,27,03,41,10.80
2018,03,27,03,42,10.80
2018,03,27,03,43,10.80
2018,03,27,03,44,10.80
2018,03,27,03,45,10.80
2018,03,27,03,46,10.80
2018,03,27,03,47,10.80
2018,03,27,03,48,10.80
2018,03,27,03,49,10.80
2018,03,27,03,50,10.80
2018,03,27,03,51,10.80
2018,03,27,03,52,10.80
2018,03,27,03,53,10.80
2018,03,27,03,54,10.80
2018,03,27,03,55,10.70
2018,03,27,03,56,10.70
2018,03,27,03,57,10.70
2018,03,27,03,58,10.70
2018,03,27,03,59,10.70
2018,03,27,04,00,10.70
2018,03,27,04,01,10.70
2018,03,27,04,02,10.70
2018,03,27,04,03,10.70
2018,03,27,04,04,10.70
2018,03,27,04,05,10.70
2018,03,27,04,06,10.70
2018,03,27,04,07,10.60
2018,03,27,04,08,10.60
2018,03,27,04,09,10.60
2018,03,27,04,10,10.60
2018,03,27,04,11,10.50
2018,03,27,04,12,10.50
2018,03,27,04,13,10.40
2018,03,27,04,14,10.40
2018,03,27,04,15,10.40
2018,03,27,04,16,10.40
2018,03,27,04,17,10.30
2018,03,27,04,18,10.30
2018,03,27,04,19,10.20
2018,03,27,04,20,10.20
2018,03,27,04,21,10.20
2018,03,27,04,22,10.10
2018,03,27,04,23,10.10
2018,03,27,04,24,10.10
2018,03,27,04,25,10.00
2018,03,27,04,26,10.00
2018,03,27,04,27,10.00
2018,03,27,04,28,10.00
2018,03,27,04,29,10.00
2018,03,27,04,30,10.00
2018,03,27,04,31,9.90
2018,03,27,04,32,10.00
2018,03,27,04,33,10.00
2018,03,27,04,34,10.10
2018,03,27,04,35,10.10
2018,03,27,04,36,10.10
2018,03,27,04,37,10.10
2018,03,27,04,38,10.10
2018,03,27,04,39,10.10
2018,03,27,04,40,10.10
2018,03,27,04,41,10.10
2018,03,27,04,42,10.10
2018,03,27,04,43,10.10
2018,03,27,04,44,10.10
2018,03,27,04,45,10.10
2018,03,27,04,46,10.10
2018,03,27,04,47,10.10
2018,03,27,04,48,10.00
2018,03,27,04,49,10.00
2018,03,27,04,50,10.00
2018,03,27,04,51,10.00
2018,03,27,04,52,10.00
2018,03,27,04,53,10.00
2018,03,27,04,54,10.00
2018,03,27,04,55,10.00
2018,03,27,04,56,10.10
2018,03,27,04,57,10.10
2018,03,27,04,58,10.10
2018,03,27,04,59,10.20
2018,03,27,05,00,10.20
2018,03,27,05,01,10.20
2018,03,27,05,02,10.20
2018,03,27,05,03,10.10
2018,03,27,05,04,10.10
2018,03,27,05,05,10.10
2018,03,27,05,06,10.10
2018,03,27,05,07,10.10
2018,03,27,05,08,10.10
2018,03,27,05,09,10.10
2018,03,27,05,10,10.10
2018,03,27,05,11,10.10
2018,03,27,05,12,10.10
2018,03,27,05,13,10.10
2018,03,27,05,14,10.00
2018,03,27,05,15,10.00
2018,03,27,05,16,10.00
2018,03,27,05,17,10.00
2018,03,27,05,18,10.00
2018,03,27,05,19,10.00
2018,03,27,05,20,10.00
2018,03,27,05,21,10.00
2018,03,27,05,22,10.00
2018,03,27,05,23,10.10
2018,03,27,05,24,10.10
2018,03,27,05,25,10.10
2018,03,27,05,26,10.10
2018,03,27,05,27,10.10
2018,03,27,05,28,10.10
2018,03,27,05,29,10.20
2018,03,27,05,30,10.20
2018,03,27,05,31,10.30
2018,03,27,05,32,10.30
2018,03,27,05,33,10.50
2018,03,27,05,34,10.50
2018,03,27,05,35,10.60
2018,03,27,05,36,10.70
2018,03,27,05,37,10.70
2018,03,27,05,38,10.70
2018,03,27,05,39,10.60
2018,03,27,05,40,10.60
2018,03,27,05,41,10.60
2018,03,27,05,42,10.60
2018,03,27,05,43,10.50
2018,03,27,05,44,10.50
2018,03,27,05,45,10.40
2018,03,27,05,46,10.40
2018,03,27,05,47,10.50
2018,03,27,05,48,10.60
2018,03,27,05,49,10.70
2018,03,27,05,50,10.80
2018,03,27,05,51,10.80
2018,03,27,05,52,10.90
2018,03,27,05,53,11.00
2018,03,27,05,54,11.00
2018,03,27,05,55,11.10
2018,03,27,05,56,11.10
2018,03,27,05,57,11.10
2018,03,27,05,58,11.10
2018,03,27,05,59,11.10
2018,03,27,06,00,11.10
2018,03,27,06,01,11.10
2018,03,27,06,02,11.00
2018,03,27,06,03,11.00
2018,03,27,06,04,10.90
2018,03,27,06,05,10.80
2018,03,27,06,06,10.80
2018,03,27,06,07,10.70
2018,03,27,06,08,10.70
2018,03,27,06,09,10.70
2018,03,27,06,10,10.70
2018,03,27,06,11,10.70
2018,03,27,06,12,10.70
2018,03,27,06,13,10.70
2018,03,27,06,14,10.70
2018,03,27,06,15,10.70
2018,03,27,06,16,10.70
2018,03,27,06,17,10.70
2018,03,27,06,18,10.60
2018,03,27,06,19,10.60
2018,03,27,06,20,10.60
2018,03,27,06,21,10.50
2018,03,27,06,22,10.50
2018,03,27,06,23,10.40
2018,03,27,06,24,10.40
2018,03,27,06,25,10.40
2018,03,27,06,26,10.40
2018,03,27,06,27,10.40
2018,03,27,06,28,10.40
2018,03,27,06,29,10.40
2018,03,27,06,30,10.40
2018,03,27,06,31,10.40
2018,03,27,06,32,10.40
2018,03,27,06,33,10.50
2018,03,27,06,34,10.50
2018,03,27,06,35,10.50
2018,03,27,06,36,10.50
2018,03,27,06,37,10.50
2018,03,27,06,38,10.50
2018,03,27,06,39,10.50
2018,03,27,06,40,10.60
2018,03,27,06,41,10.70
2018,03,27,06,42,10.70
2018,03,27,06,43,10.70
2018,03,27,06,44,10.70
2018,03,27,06,45,10.80
2018,03,27,06,46,10.80
2018,03,27,06,47,10.70
2018,03,27,06,48,10.70
2018,03,27,06,49,10.70
2018,03,27,06,50,10.70
2018,03,27,06,51,10.70
2018,03,27,06,52,10.70
2018,03,27,06,53,10.70
2018,03,27,06,54,10.70
2018,03,27,06,55,10.70
2018,03,27,06,56,10.60
2018,03,27,06,57,10.60
2018,03,27,06,58,10.60
2018,03,27,06,59,10.60
2018,03,27,07,00,10.60
2018,03,27,07,01,10.60
2018,03,27,07,02,10.60
2018,03,27,07,03,10.70
2018,03,27,07,04,10.70
2018,03,27,07,05,10.70
2018,03,27,07,06,10.80
2018,03,27,07,07,10.80
2018,03,27,07,08,10.90
2018,03,27,07,09,10.90
2018,03,27,07,10,10.90
2018,03,27,07,11,10.90
2018,03,27,07,12,11.00
2018,03,27,07,13,11.00
2018,03,27,07,14,11.00
2018,03,27,07,15,11.10
2018,03,27,07,16,11.10
2018,03,27,07,17,11.10
2018,03,27,07,18,11.10
2018,03,27,07,19,11.10
2018,03,27,07,20,11.10
2018,03,27,07,21,11.10
2018,03,27,07,22,11.10
2018,03,27,07,23,11.10
2018,03,27,07,24,11.10
2018,03,27,07,25,11.10
2018,03,27,07,26,11.10
2018,03,27,07,27,11.10
2018,03,27,07,28,11.00
2018,03,27,07,29,11.10
2018,03,27,07,30,11.10
2018,03,27,07,31,11.10
2018,03,27,07,32,11.10
2018,03,27,07,33,11.10
2018,03,27,07,34,11.10
2018,03,27,07,35,11.10
2018,03,27,07,36,11.10
2018,03,27,07,37,11.10
2018,03,27,07,38,11.00
2018,03,27,07,39,11.00
2018,03,27,07,40,10.90
2018,03,27,07,41,10.90
2018,03,27,07,42,10.80
2018,03,27,07,43,10.80
2018,03,27,07,44,10.80
2018,03,27,07,45,10.70
2018,03,27,07,46,10.70
2018,03,27,07,47,10.70
2018,03,27,07,48,10.60
2018,03,27,07,49,10.60
2018,03,27,07,50,10.60
2018,03,27,07,51,10.60
2018,03,27,07,52,10.60
2018,03,27,07,53,10.60
2018,03,27,07,54,10.50
2018,03,27,07,55,10.50
2018,03,27,07,56,10.50
2018,03,27,07,57,10.50
2018,03,27,07,58,10.50
2018,03,27,07,59,10.50
2018,03,27,08,00,10.50
2018,03,27,08,01,10.50
2018,03,27,08,02,10.50
2018,03,27,08,03,10.50
2018,03,27,08,04,10.60
2018,03,27,08,05,10.60
2018,03,27,08,06,10.60
2018,03,27,08,07,10.60
2018,03,27,08,08,10.50
2018,03,27,08,09,10.50
2018,03,27,08,10,10.50
2018,03,27,08,11,10.50
2018,03,27,08,12,10.50
2018,03,27,08,13,10.50
2018,03,27,08,14,10.40
2018,03,27,08,15,10.50
2018,03,27,08,16,10.50
2018,03,27,08,17,10.50
2018,03,27,08,18,10.50
2018,03,27,08,19,10.50
2018,03,27,08,20,10.50
2018,03,27,08,21,10.50
2018,03,27,08,22,10.50
2018,03,27,08,23,10.50
2018,03,27,08,24,10.60
2018,03,27,08,25,10.60
2018,03,27,08,26,10.60
2018,03,27,08,27,10.60
2018,03,27,08,28,10.70
2018,03,27,08,29,10.70
2018,03,27,08,30,10.70
2018,03,27,08,31,10.70
2018,03,27,08,32,10.70
2018,03,27,08,33,10.70
2018,03,27,08,34,10.80
2018,03,27,08,35,10.80
2018,03,27,08,36,10.80
2018,03,27,08,37,10.80
2018,03,27,08,38,10.80
2018,03,27,08,39,10.80
2018,03,27,08,40,10.80
2018,03,27,08,41,10.80
2018,03,27,08,42,10.80
2018,03,27,08,43,10.80
2018,03,27,08,44,10.80
2018,03,27,08,45,10.80
2018,03,27,08,46,10.80
2018,03,27,08,47,10.80
2018,03,27,08,48,10.80
2018,03,27,08,49,10.80
2018,03,27,08,50,10.80
2018,03,27,08,51,10.80
2018,03,27,08,52,10.80
2018,03,27,08,53,10.80
2018,03,27,08,54,10.80
2018,03,27,08,55,10.80
2018,03,27,08,56,10.80
2018,03,27,08,57,10.80
2018,03,27,08,58,10.80
2018,03,27,08,59,10.80
2018,03,27,09,00,10.90
2018,03,27,09,01,10.90
2018,03,27,09,02,10.80
2018,03,27,09,03,10.80
2018,03,27,09,04,10.80
2018,03,27,09,05,10.80
2018,03,27,09,06,10.80
2018,03,27,09,07,10.80
2018,03,27,09,08,10.80
2018,03,27,09,09,10.80
2018,03,27,09,10,10.80
2018,03,27,09,11,10.80
2018,03,27,09,12,10.80
2018,03,27,09,13,10.80
2018,03,27,09,14,10.80
2018,03,27,09,15,10.80
2018,03,27,09,16,10.80
2018,03,27,09,17,10.90
2018,03,27,09,18,10.90
2018,03,27,09,19,10.90
2018,03,27,09,20,10.90
2018,03,27,09,21,10.90
2018,03,27,09,22,10.90
2018,03,27,09,23,10.90
2018,03,27,09,24,10.90
2018,03,27,09,25,10.90
2018,03,27,09,26,10.90
2018,03,27,09,27,11.00
2018,03,27,09,28,11.00
2018,03,27,09,29,11.00
2018,03,27,09,30,11.00
2018,03,27,09,31,11.00
2018,03,27,09,32,11.00
2018,03,27,09,33,11.00
2018,03,27,09,34,11.00
2018,03,27,09,35,11.00
2018,03,27,09,36,11.00
2018,03,27,09,37,11.00
2018,03,27,09,38,11.00
2018,03,27,09,39,11.10
2018,03,27,09,40,11.10
2018,03,27,09,41,11.10
2018,03,27,09,42,11.10
2018,03,27,09,43,11.10
2018,03,27,09,44,11.10
2018,03,27,09,45,11.10
2018,03,27,09,46,11.10
2018,03,27,09,47,11.10
2018,03,27,09,48,11.20
2018,03,27,09,49,11.20
2018,03,27,09,50,11.20
2018,03,27,09,51,11.20
2018,03,27,09,52,11.20
2018,03,27,09,53,11.20
2018,03,27,09,54,11.20
2018,03,27,09,55,11.20
2018,03,27,09,56,11.30
2018,03,27,09,57,11.30
2018,03,27,09,58,11.30
2018,03,27,09,59,11.30
2018,03,27,10,00,11.30
2018,03,27,10,01,11.30
2018,03,27,10,02,11.40
2018,03,27,10,03,11.40
2018,03,27,10,04,11.40
2018,03,27,10,05,11.50
2018,03,27,10,06,11.50
2018,03,27,10,07,11.50
2018,03,27,10,08,11.50
2018,03,27,10,09,11.50
2018,03,27,10,10,11.50
2018,03,27,10,11,11.50
2018,03,27,10,12,11.60
2018,03,27,10,13,11.60
2018,03,27,10,14,11.60
2018,03,27,10,15,11.60
2018,03,27,10,16,11.60
2018,03,27,10,17,11.60
2018,03,27,10,18,11.70
2018,03,27,10,19,11.70
2018,03,27,10,20,11.70
2018,03,27,10,21,11.70
2018,03,27,10,22,11.70
2018,03,27,10,23,11.70
2018,03,27,10,24,11.80
2018,03,27,10,25,11.80
2018,03,27,10,26,11.80
2018,03,27,10,27,11.80
2018,03,27,10,28,11.80
2018,03,27,10,29,11.80
2018,03,27,10,30,11.90
2018,03,27,10,31,11.90
2018,03,27,10,32,11.90
2018,03,27,10,33,12.00
2018,03,27,10,34,12.00
2018,03,27,10,35,12.00
2018,03,27,10,36,12.10
2018,03,27,10,37,12.10
2018,03,27,10,38,12.10
2018,03,27,10,39,12.10
2018,03,27,10,40,12.20
2018,03,27,10,41,12.20
2018,03,27,10,42,12.20
2018,03,27,10,43,12.20
2018,03,27,10,44,12.20
2018,03,27,10,45,12.30
2018,03,27,10,46,12.30
2018,03,27,10,47,12.30
2018,03,27,10,48,12.30
2018,03,27,10,49,12.30
2018,03,27,10,50,12.40
2018,03,27,10,51,12.40
2018,03,27,10,52,12.40
2018,03,27,10,53,12.40
2018,03,27,10,54,12.50
2018,03,27,10,55,12.50
2018,03,27,10,56,12.60
2018,03,27,10,57,12.60
2018,03,27,10,58,12.60
2018,03,27,10,59,12.70
2018,03,27,11,00,12.70
2018,03,27,11,01,12.70
2018,03,27,11,02,12.70
2018,03,27,11,03,12.70
2018,03,27,11,04,12.80
2018,03,27,11,05,12.80
2018,03,27,11,06,12.80
2018,03,27,11,07,12.80
2018,03,27,11,08,12.80
2018,03,27,11,09,12.80
2018,03,27,11,10,12.90
2018,03,27,11,11,12.90
2018,03,27,11,12,12.90
2018,03,27,11,13,12.90
2018,03,27,11,14,13.00
2018,03,27,11,15,13.00
2018,03,27,11,16,13.10
2018,03,27,11,17,13.10
2018,03,27,11,18,13.20
2018,03,27,11,19,13.20
2018,03,27,11,20,13.20
2018,03,27,11,21,13.20
2018,03,27,11,22,13.20
2018,03,27,11,23,13.20
2018,03,27,11,24,13.20
2018,03,27,11,25,13.20
2018,03,27,11,26,13.20
2018,03,27,11,27,13.30
2018,03,27,11,28,13.30
2018,03,27,11,29,13.30
2018,03,27,11,30,13.30
2018,03,27,11,31,13.30
2018,03,27,11,32,13.30
2018,03,27,11,33,13.40
2018,03,27,11,34,13.40
2018,03,27,11,35,13.50
2018,03,27,11,36,13.60
2018,03,27,11,37,13.70
2018,03,27,11,38,13.70
2018,03,27,11,39,13.80
2018,03,27,11,40,13.80
2018,03,27,11,41,13.80
2018,03,27,11,42,13.90
2018,03,27,11,43,13.90
2018,03,27,11,44,13.90
2018,03,27,11,45,13.90
2018,03,27,11,46,13.90
2018,03,27,11,47,13.90
2018,03,27,11,48,14.00
2018,03,27,11,49,14.00
2018,03,27,11,50,14.00
2018,03,27,11,51,14.00
2018,03,27,11,52,13.90
2018,03,27,11,53,13.90
2018,03,27,11,54,13.90
2018,03,27,11,55,13.80
2018,03,27,11,56,13.80
2018,03,27,11,57,13.80
2018,03,27,11,58,13.80
2018,03,27,11,59,13.80
2018,03,27,12,00,13.90
2018,03,27,12,01,13.90
2018,03,27,12,02,14.00
2018,03,27,12,03,14.10
2018,03,27,12,04,14.10
2018,03,27,12,05,14.10
2018,03,27,12,06,14.10
2018,03,27,12,07,14.20
2018,03,27,12,08,14.20
2018,03,27,12,09,14.20
2018,03,27,12,10,14.30
2018,03,27,12,11,14.40
2018,03,27,12,12,14.50
2018,03,27,12,13,14.50
2018,03,27,12,14,14.60
2018,03,27,12,15,14.60
2018,03,27,12,16,14.60
2018,03,27,12,17,14.50
2018,03,27,12,18,14.50
2018,03,27,12,19,14.50
2018,03,27,12,20,14.50
2018,03,27,12,21,14.50
2018,03,27,12,22,14.60
2018,03,27,12,23,14.70
2018,03,27,12,24,14.70
2018,03,27,12,25,14.80
2018,03,27,12,26,14.80
2018,03,27,12,27,14.80
2018,03,27,12,28,14.90
2018,03,27,12,29,15.00
2018,03,27,12,30,15.10
2018,03,27,12,31,15.20
2018,03,27,12,32,15.20
2018,03,27,12,33,15.30
2018,03,27,12,34,15.30
2018,03,27,12,35,15.30
2018,03,27,12,36,15.30
2018,03,27,12,37,15.20
2018,03,27,12,38,15.10
2018,03,27,12,39,15.10
2018,03,27,12,40,15.10
2018,03,27,12,41,15.10
2018,03,27,12,42,15.10
2018,03,27,12,43,15.10
2018,03,27,12,44,15.10
2018,03,27,12,45,15.20
2018,03,27,12,46,15.20
2018,03,27,12,47,15.20
2018,03,27,12,48,15.30
2018,03,27,12,49,15.30
2018,03,27,12,50,15.30
2018,03,27,12,51,15.40
2018,03,27,12,52,15.40
2018,03,27,12,53,15.40
2018,03,27,12,54,15.40
2018,03,27,12,55,15.50
2018,03,27,12,56,15.50
2018,03,27,12,57,15.40
2018,03,27,12,58,15.40
2018,03,27,12,59,15.30
2018,03,27,13,00,15.30
2018,03,27,13,01,15.30
2018,03,27,13,02,15.30
2018,03,27,13,03,15.30
2018,03,27,13,04,15.20
2018,03,27,13,05,15.20
2018,03,27,13,06,15.20
2018,03,27,13,07,15.30
2018,03,27,13,08,15.30
2018,03,27,13,09,15.40
2018,03,27,13,10,15.40
2018,03,27,13,11,15.50
2018,03,27,13,12,15.50
2018,03,27,13,13,15.60
2018,03,27,13,14,15.60
2018,03,27,13,15,15.60
2018,03,27,13,16,15.60
2018,03,27,13,17,15.50
2018,03,27,13,18,15.60
2018,03,27,13,19,15.60
2018,03,27,13,20,15.60
2018,03,27,13,21,15.60
2018,03,27,13,22,15.60
2018,03,27,13,23,15.50
2018,03,27,13,24,15.40
2018,03,27,13,25,15.40
2018,03,27,13,26,15.40
2018,03,27,13,27,15.40
2018,03,27,13,28,15.40
2018,03,27,13,29,15.50
2018,03,27,13,30,15.50
2018,03,27,13,31,15.60
2018,03,27,13,32,15.60
2018,03,27,13,33,15.70
2018,03,27,13,34,15.70
2018,03,27,13,35,15.70
2018,03,27,13,36,15.60
2018,03,27,13,37,15.60
2018,03,27,13,38,15.60
2018,03,27,13,39,15.60
2018,03,27,13,40,15.60
2018,03,27,13,41,15.60
2018,03,27,13,42,15.60
2018,03,27,13,43,15.60
2018,03,27,13,44,15.60
2018,03,27,13,45,15.60
2018,03,27,13,46,15.70
2018,03,27,13,47,15.70
2018,03,27,13,48,15.70
2018,03,27,13,49,15.70
2018,03,27,13,50,15.70
2018,03,27,13,51,15.70
2018,03,27,13,52,15.70
2018,03,27,13,53,15.80
2018,03,27,13,54,15.90
2018,03,27,13,55,15.90
2018,03,27,13,56,16.00
2018,03,27,13,57,16.10
2018,03,27,13,58,16.00
2018,03,27,13,59,16.00
2018,03,27,14,00,16.00
2018,03,27,14,01,16.00
2018,03,27,14,02,15.90
2018,03,27,14,03,15.90
2018,03,27,14,04,15.90
2018,03,27,14,05,15.90
2018,03,27,14,06,15.90
2018,03,27,14,07,15.90
2018,03,27,14,08,15.90
2018,03,27,14,09,15.90
2018,03,27,14,10,15.90
2018,03,27,14,11,15.90
2018,03,27,14,12,15.90
2018,03,27,14,13,15.90
2018,03,27,14,14,15.90
2018,03,27,14,15,15.90
2018,03,27,14,16,15.90
2018,03,27,14,17,15.90
2018,03,27,14,18,15.90
2018,03,27,14,19,15.80
2018,03,27,14,20,15.90
2018,03,27,14,21,15.90
2018,03,27,14,22,15.90
2018,03,27,14,23,16.00
2018,03,27,14,24,16.10
2018,03,27,14,25,16.10
2018,03,27,14,26,16.20
2018,03,27,14,27,16.30
2018,03,27,14,28,16.30
2018,03,27,14,29,16.20
2018,03,27,14,30,16.10
2018,03,27,14,31,16.10
2018,03,27,14,32,16.00
2018,03,27,14,33,16.10
2018,03,27,14,34,16.10
2018,03,27,14,35,16.10
2018,03,27,14,36,16.20
2018,03,27,14,37,16.20
2018,03,27,14,38,16.20
2018,03,27,14,39,16.10
2018,03,27,14,40,16.10
2018,03,27,14,41,16.10
2018,03,27,14,42,16.10
2018,03,27,14,43,16.00
2018,03,27,14,44,15.90
2018,03,27,14,45,15.90
2018,03,27,14,46,15.90
2018,03,27,14,47,15.90
2018,03,27,14,48,15.90
2018,03,27,14,49,15.80
2018,03,27,14,50,15.80
2018,03,27,14,51,15.80
2018,03,27,14,52,15.80
2018,03,27,14,53,15.80
2018,03,27,14,54,15.80
2018,03,27,14,55,15.80
2018,03,27,14,56,15.80
2018,03,27,14,57,15.70
2018,03,27,14,58,15.80
2018,03,27,14,59,15.80
2018,03,27,15,00,15.70
2018,03,27,15,01,15.70
2018,03,27,15,02,15.70
2018,03,27,15,03,15.60
2018,03,27,15,04,15.60
2018,03,27,15,05,15.60
2018,03,27,15,06,15.60
2018,03,27,15,07,15.70
2018,03,27,15,08,15.70
2018,03,27,15,09,15.80
2018,03,27,15,10,15.80
2018,03,27,15,11,15.80
2018,03,27,15,12,15.90
2018,03,27,15,13,15.90
2018,03,27,15,14,15.90
2018,03,27,15,15,15.90
2018,03,27,15,16,15.90
2018,03,27,15,17,15.90
2018,03,27,15,18,16.00
2018,03,27,15,19,15.90
2018,03,27,15,20,15.90
2018,03,27,15,21,15.90
2018,03,27,15,22,15.90
2018,03,27,15,23,15.80
2018,03,27,15,24,15.80
2018,03,27,15,25,15.70
2018,03,27,15,26,15.70
2018,03,27,15,27,15.60
2018,03,27,15,28,15.50
2018,03,27,15,29,15.50
2018,03,27,15,30,15.50
2018,03,27,15,31,15.40
2018,03,27,15,32,15.40
2018,03,27,15,33,15.40
2018,03,27,15,34,15.40
2018,03,27,15,35,15.40
2018,03,27,15,36,15.40
2018,03,27,15,37,15.40
2018,03,27,15,38,15.40
2018,03,27,15,39,15.40
2018,03,27,15,40,15.40
2018,03,27,15,41,15.40
2018,03,27,15,42,15.40
2018,03,27,15,43,15.40
2018,03,27,15,44,15.40
2018,03,27,15,45,15.30
2018,03,27,15,46,15.40
2018,03,27,15,47,15.40
2018,03,27,15,48,15.40
2018,03,27,15,49,15.40
2018,03,27,15,50,15.50
2018,03,27,15,51,15.50
2018,03,27,15,52,15.60
2018,03,27,15,53,15.60
2018,03,27,15,54,15.70
2018,03,27,15,55,15.80
2018,03,27,15,56,15.80
2018,03,27,15,57,15.80
2018,03,27,15,58,15.90
2018,03,27,15,59,15.90
2018,03,27,16,00,15.90
2018,03,27,16,01,15.90
2018,03,27,16,02,15.80
2018,03,27,16,03,15.80
2018,03,27,16,04,15.80
2018,03,27,16,05,15.80
2018,03,27,16,06,15.80
2018,03,27,16,07,15.80
2018,03,27,16,08,15.80
2018,03,27,16,09,15.80
2018,03,27,16,10,15.80
2018,03,27,16,11,15.80
2018,03,27,16,12,15.80
2018,03,27,16,13,15.70
2018,03,27,16,14,15.70
2018,03,27,16,15,15.70
2018,03,27,16,16,15.70
2018,03,27,16,17,15.70
2018,03,27,16,18,15.70
2018,03,27,16,19,15.70
2018,03,27,16,20,15.70
2018,03,27,16,21,15.70
2018,03,27,16,22,15.70
2018,03,27,16,23,15.70
2018,03,27,16,24,15.60
2018,03,27,16,25,15.60
2018,03,27,16,26,15.60
2018,03,27,16,27,15.60
2018,03,27,16,28,15.60
2018,03,27,16,29,15.60
2018,03,27,16,30,15.60
2018,03,27,16,31,15.60
2018,03,27,16,32,15.60
2018,03,27,16,33,15.70
2018,03,27,16,34,15.70
2018,03,27,16,35,15.70
2018,03,27,16,36,15.70
2018,03,27,16,37,15.70
2018,03,27,16,38,15.70
2018,03,27,16,39,15.70
2018,03,27,16,40,15.70
2018,03,27,16,41,15.70
2018,03,27,16,42,15.70
2018,03,27,16,43,15.70
2018,03,27,16,44,15.70
2018,03,27,16,45,15.70
2018,03,27,16,46,15.60
2018,03,27,16,47,15.60
2018,03,27,16,48,15.60
2018,03,27,16,49,15.60
2018,03,27,16,50,15.60
2018,03,27,16,51,15.60
2018,03,27,16,52,15.60
2018,03,27,16,53,15.60
2018,03,27,16,54,15.60
2018,03,27,16,55,15.70
2018,03,27,16,56,15.70
2018,03,27,16,57,15.80
2018,03,27,16,58,15.80
2018,03,27,16,59,15.80
2018,03,27,17,00,15.70
2018,03,27,17,01,15.60
2018,03,27,17,02,15.60
2018,03,27,17,03,15.60
2018,03,27,17,04,15.50
2018,03,27,17,05,15.50
2018,03,27,17,06,15.40
2018,03,27,17,07,15.40
2018,03,27,17,08,15.40
2018,03,27,17,09,15.40
2018,03,27,17,10,15.40
2018,03,27,17,11,15.40
2018,03,27,17,12,15.40
2018,03,27,17,13,15.30
2018,03,27,17,14,15.30
2018,03,27,17,15,15.20
2018,03,27,17,16,15.20
2018,03,27,17,17,15.20
2018,03,27,17,18,15.10
2018,03,27,17,19,15.00